Regional Weather Roundup
Issued by NWS Newport/Morehead, NC

Current Version | Previous Version | Text Only | Print | Product List | Glossary On
Versions: 1 2 3 4 5 6 7 8 9 10 11 12 13 14 15 16 17 18 19 20 21 22 23 24 25 26 27 28 29 30 31 32 33 34 35 36 37 38 39 40 41 42 43 44 45 46 47 48 49 50
636
ASUS42 KMHX 231225
RWRMHX
WEATHER ROUNDUP FOR EASTERN NORTH CAROLINA
NATIONAL WEATHER SERVICE NEWPORT/MOREHEAD CITY NC
800 AM EDT SUN JUL 23 2017

NOTE: "FAIR" INDICATES FEW OR NO CLOUDS BELOW 12,000 FEET
WITH NO SIGNIFICANT WEATHER AND/OR OBSTRUCTIONS TO VISIBILITY

NCZ015>017-031-032-045>047-102-103-231300-
NORTH COAST

CITY           SKY/WX    TMP DP  RH WIND       PRES   REMARKS
EDENTON        SUNNY     83  76  80 SW9       29.86R
ELIZABETH CITY SUNNY     82  77  84 SW14      29.83S
KITTY HAWK     MOSUNNY   82  74  77 SW8G21    29.83F
MANTEO         SUNNY     82  75  79 SW18      29.85S

$$

NCZ045>047-081-094-103-104-231300-
CENTRAL COAST

CITY           SKY/WX    TMP DP  RH WIND       PRES   REMARKS
FRISCO         SUNNY     78  74  87 SW14      29.89S

$$

NCZ095-097-098-100-101-231300-
SOUTHERN COAST

CITY           SKY/WX    TMP DP  RH WIND       PRES   REMARKS
BEAUFORT       SUNNY     83  79  88 SW17G23   29.92R
CEDAR ISLAND   NOT AVBL
JACKSONVILLE   SUNNY     81  77  88 SW10      29.91R
PINEY ISLAND   SUNNY    N/A N/A N/A SW15G25   29.90S
WILMINGTON     MOSUNNY   81  77  88 SW12      29.93R


$$

NCZ011>013-027>030-043-044-078>080-089-090>093-098-231300-
COASTAL PLAIN

CITY           SKY/WX    TMP DP  RH WIND       PRES   REMARKS
AHOSKIE          N/A     80  75  86 S6        29.84R
CLINTON        NOT AVBL
ELIZABETHTOWN  NOT AVBL
GOLDSBORO      NOT AVBL
GREENVILLE     SUNNY     81  75  83 SW13G22   29.88S
HAVELOCK       SUNNY     82  76  81 SW15      29.92S
KENANSVILLE    SUNNY     81  73  78 SW8       29.90S
KINSTON        NOT AVBL
NEW BERN       SUNNY     80  75  84 SW10      29.91S
RICHLANDS      SUNNY     80  75  84 S10G18    29.91S
ROCKY MOUNT    SUNNY     81  76  84 SW10      29.86R
WASHINGTON     SUNNY     80  74  80 SW9G16    29.87S
WHITEVILLE     SUNNY     80  75  84 SW8       29.93S

$$

AMZ130-135-150-152-154-156-158-170-250-252-270-ANZ085-086-088-633-658-670-231300-
MARINE OBSERVATIONS

STATION/POSITION TIME  TEMP    WIND        PRES    WAVE   SWELL
                       AIR SEA DIR/SP/G            HT/PER HT/PER
                 (UTC) (F)     (DEG/KT/KT) (MB)    (FT/S) (FT/S)
CHESAPEAKE LIGHT NOT AVBL
64 E VA BEACH    1150   80 79  230/ 17/ 19 1009.6    5/ 6   2/ 9
DUCK             1200   81 58  230/ 16/ 22 1010.0
2 E DUCK         1200      61                N/A     2/10
OREGON INLET     1200   82 83  220/ 18/ 24 1010.8
13E OREGON INLT  1148      79                N/A     4/ 6   2/ 7
HATTERAS CG      1200   78 76  230/ 13/ 18 1012.1
DIAMOND BUOY     1150   83 85  240/ 25/ 29 1011.9    5/ 6   2/ 9
CAPE LOOKOUT     1200   82     220/ 14/ 17 1012.9
BEAUFORT LAB     1200   82 78  230/  5/ 15 1012.7
30 SE NEW RVR IN 1208   81 81  240/ 17/ 23 1013.6
30 SE NEW RVR IN 1213      81                N/A     6/ 5   2/25
27 SE WRIGHTSVLE 1208   82 82  220/ 17/ 23 1013.6
5 SE WRIGHTSVLE  1208   81 79  220/ 12/ 16 1013.6
225 S CAPE HAT   1150   83 83  230/ 17/ 21 1016.6    5/ 5   2/10
41 SE CHARLESTON 1210   82 83  230/ 17/ 21 1014.9

$$




USA.gov is the U.S. government's official web portal to all federal, state and local government web resources and services.